Regional Weather Roundup
Issued by NWS

Home | Current Version | Previous Version | Text Only | Print | Product List | Glossary On
Versions: 1 2 3 4 5 6 7 8 9 10 11 12 13 14 15 16 17 18 19 20 21 22 23 24 25 26 27 28 29 30 31 32 33 34 35 36 37 38 39 40 41 42 43 44 45 46 47 48 49 50
000
ASUS43 KMPX 211401
RWRMN
WEATHER ROUNDUP FOR MINNESOTA
NATIONAL WEATHER SERVICE TWIN CITIES/CHANHASSEN MN
900 AM CDT THU AUG 21 2014


NOTE: "FAIR" INDICATES FEW OR NO CLOUDS BELOW 12,000 FEET WITH NO
SIGNIFICANT WEATHER AND/OR OBSTRUCTIONS TO VISIBILITY. N/A MEANS
CURRENT SKY AND/OR WEATHER CONDITIONS ARE NOT AVAILABLE.

MNZ060>063-068>070-211500-
   Twin Cities Metro

CITY           SKY/WX    TMP DP  RH WIND       PRES   REMARKS
TWIN CITIES    CLOUDY    71  70  96 SE10      29.79F
ST PAUL        CLOUDY    70  68  93 SE8       29.79F
CRYSTAL        CLOUDY    71  67  87 E6        29.77F
LAKEVILLE      CLOUDY    70  66  88 SE8       29.79F
EDEN PRAIRIE   PTSUNNY   72  70  94 SE7       29.78F
SOUTH ST PAUL  CLOUDY    71  68  92 SE6       29.79F
LAKE ELMO      CLOUDY    68  68 100 E3        29.81F
$$
MNZ001>005-007-008-013>017-022>024-027-028-211500-
   Northwest Minnesota

CITY           SKY/WX    TMP DP  RH WIND       PRES   REMARKS
BEMIDJI        CLOUDY    64  61  90 E8        29.83R
HALLOCK        PTSUNNY   70  64  83 E5        29.79S
ROSEAU         CLOUDY    64  59  82 E5        29.83S
WARROAD        CLOUDY    63  59  88 SE9       29.85S
THIEF RVR FALL CLOUDY    66  63  88 E9        29.80S
CROOKSTON      PTSUNNY   70  64  83 SE10      29.79S
FOSSTON        PTSUNNY   66  63  88 SE12      29.82R
DETROIT LAKES  PTSUNNY   70  64  83 E7        29.80S
MOORHEAD       MOSUNNY   73  72  94 E3        29.76S
PARK RAPIDS    CLOUDY    66  65  96 E6        29.82R
MAHNOMEN       CLOUDY    67  65  91 SE7       29.80R
$$
MNZ006-009>011-018-025>026-211500-
   North Central Minnesota

CITY           SKY/WX    TMP DP  RH WIND       PRES   REMARKS
BAUDETTE       CLOUDY    61  59  93 SE10G20   29.86F
FLAG ISLAND    CLOUDY    66  61  82 SE13      29.85S
INTL FALLS     CLOUDY    61  59  93 SE8       29.90F
WASKISH        CLOUDY    63  61  94 CALM      29.85S
BIG FORK       CLOUDY    63  59  88 CALM      29.89R
LONGVILLE      CLOUDY    64  63  94 NE3       29.83S
GRAND RAPIDS   CLOUDY    63  57  82 E6        29.86R
CRANE LAKE     PTSUNNY   63  59  88 CALM      29.92F
ORR            CLOUDY    63  55  77 E5        29.88F
COOK           CLOUDY    63  57  82 SE6       29.90F
WALKER         CLOUDY    64  62  94 E6        29.82S
$$
MNZ012-019>021-037-211500-
   Northeast Minnesota

CITY           SKY/WX    TMP DP  RH WIND       PRES   REMARKS
DULUTH         DRZL/FOG  61  59  93 E13       29.90F VSB 1/2
ELY            PTSUNNY   63  57  82 SE9       29.93F
HIBBING        CLOUDY    63  58  83 E8        29.88F
EVELETH        CLOUDY    61  57  88 E7        29.90F
DULUTH HARBOR  DRIZZLE   61  61 100 NE17      29.90F
TWO HARBORS    CLOUDY    63  57  82 E10       29.91F
SILVER BAY     FOG       59  59 100 NE8       29.93F VSB 1/4
GRAND MARAIS     N/A     63  60  90 E7        29.95S
G MARAIS ARPRT CLOUDY    61  57  88 E3        29.98F
$$
MNZ029>031-032-039>041-046>048-054>057-064-211500-
   West Central Minnesota

CITY           SKY/WX    TMP DP  RH WIND       PRES   REMARKS
FERGUS FALLS   MOSUNNY   73  68  83 SE9       29.76R
WHEATON        SUNNY     68  66  94 SE9       29.75F
MORRIS         SUNNY     72  70  94 SE10      29.74S
ALEXANDRIA     MOSUNNY   70  66  87 SE13      29.78R
ELBOW LAKE     FAIR      72  67  84 SE9       29.76R
WADENA         CLOUDY    66  64  94 E5        29.80R
APPLETON       CLOUDY    73  70  88 SE9       29.74F
BENSON         CLOUDY    72  70  94 S13       29.75S
ORTONVILLE     PTSUNNY   72  66  83 SE9       29.75S
MADISON        SUNNY     75  72  88 S8        29.75S
WILLMAR        PTSUNNY   72  70  94 SE12G21   29.77S
$$
MNZ033>034-036-042>043-049>051-058-059-211500-
   Central Minnesota

CITY           SKY/WX    TMP DP  RH WIND       PRES   REMARKS
ST CLOUD       PTSUNNY   72  68  87 E7        29.77S
SAUK CENTRE    FAIR      69  65  88 E9        29.78R
PAYNESVILLE    PTSUNNY   68  66  93 E7        29.77S
AITKIN         MIX PCPN  66  61  82 SE10      29.76F
PINE RIVER     CLOUDY    66  66 100 CALM      29.85S
BRAINERD       LGT RAIN  66  65  96 SE9       29.77S
STAPLES        CLOUDY    64  64 100 CALM      29.79R
LONG PRAIRIE   PTSUNNY   68  64  88 E7        29.78S
LITTLE FALLS   MOSUNNY   64  63  94 SE9G18    29.77F
LITCHFIELD     SUNNY     73  72  94 SE14      29.76F
BUFFALO        MOSUNNY   71  67  88 E8        29.79S
MAPLE LAKE     MOSUNNY   72  70  93 SE6       29.78S
$$
MNZ037-044-045-052-053-211500-
   East Central Minnesota

CITY           SKY/WX    TMP DP  RH WIND       PRES   REMARKS
PRINCETON      PTSUNNY   70  66  88 E8        29.80S
MORA           CLOUDY    63  63 100 CALM      29.85S
CAMBRIDGE      CLOUDY    72  63  73 SE5       29.78F
RUSH CITY      CLOUDY    66  65  96 CALM      29.81S
MOOSE LAKE     RAIN      61  59  94 E6        29.84F
HINCKLEY       CLOUDY    63  63 100 NE6       29.83F
CLOQUET        DRIZZLE   61  59  94 E9        29.88F
MCGREGOR       CLOUDY    63  61  94 SE13G20   29.83F
$$
MNZ071>073-080-081-089-090-097-098-211500-
   Southwest Minnesota

CITY           SKY/WX    TMP DP  RH WIND       PRES   REMARKS
MONTEVIDEO     CLOUDY    73  72  94 S9        29.76S
GRANITE FALLS  CLOUDY   N/A N/A N/A SE10      29.76S
CANBY          SUNNY     72  69  90 SE6       29.75F
MARSHALL       MOSUNNY   73  68  83 S7        29.75S
REDWOOD FALLS  CLOUDY    74  71  91 E7        29.76R
OLIVIA         CLOUDY    73  70  88 SE12G17   29.75S
PIPESTONE      CLOUDY    73  72  94 CALM      29.78S
WINDOM         PTSUNNY   73  70  88 S12       29.78S
WORTHINGTON    CLOUDY    75  16  10 SW6       29.80S
JACKSON        PTSUNNY   73  70  88 S8        29.81R
TRACY          PTSUNNY   74  71  92 CALM      29.76S
SLAYTON        CLOUDY    73  72  97 CALM      29.79S
$$
MNZ065>067-074>077-082>085-091>093-211500-
   South Central Minnesota

CITY           SKY/WX    TMP DP  RH WIND       PRES   REMARKS
MANKATO        CLOUDY    72  66  83 SE14      29.79S
NEW ULM        MOSUNNY   72  72 100 S7        29.76S
ST JAMES       PTSUNNY   73  70  88 SE13      29.78S
FAIRMONT       CLOUDY    72  66  83 MISG      29.81R
GLENCOE        CLOUDY    73  68  83 SE8       29.77S
FARIBAULT      CLOUDY    72  66  83 SE7       29.80F
OWATONNA       CLOUDY    70  66  88 CALM      29.83S
WASECA         CLOUDY    70  64  83 E7        29.80F
ALBERT LEA     CLOUDY    70  70 100 S13       29.82F
$$
MNZ078>079-086>088-094>096-211500-
   Southeast Minnesota

CITY           SKY/WX    TMP DP  RH WIND       PRES   REMARKS
ROCHESTER      RAIN      70  68  93 SE10G18   29.87F FOG
RED WING       LGT RAIN  72  70  94 SE10G17   29.80F
STANTON        CLOUDY    72  66  81 SE7       29.78F
DODGE CENTER   DRIZZLE   68  66  94 E12       29.82F
WINONA         LGT RAIN  70  68  94 SE5       29.88F
AUSTIN         TSTM      70  70 100 SE13G18   29.81F
$$
ABBREVIATIONS USED IN REMARKS
   TC - TEMPERATURES IN CELSIUS
  WCI - WIND CHILL INDEX
   HX - HEAT INDEX
  VSB - VISIBILITY
$$


USA.gov is the U.S. government's official web portal to all federal, state and local government web resources and services.